Lapse_Rate
3.5 3.5 2.9 2.2 1.4 0.9 0.9 0.8 0.6 0.1 -0.5 -0.8 -1.1 -1.2 -1.4 -1.8 -1.7 -0.7 -0.1 0.0 -0.2 -0.4 -0.7 -1.1 -1.4 -1.6 -2.3 -2.6 -2.2 -2.5 -2.5 -1.5 -1.5 -0.2 2.1 3.0 2.8 4.4 4.7 5.0 5.0 4.0 4.0
2.8 2.5 1.8 1.8 1.5 1.2 0.7 0.8 1.1 0.8 0.3 -0.2 -1.0 -1.5 -1.9 -1.6 -1.4 -0.4 0.1 0.2 0.1 0.0 0.1 -0.9 -1.2 -1.3 -1.8 -1.9 -1.9 -1.7 -1.9 -1.2 -0.4 0.7 2.3 3.2 4.7 4.6 4.3 5.1 5.2 4.6 4.3
2.9 2.5 0.9 1.0 0.5 0.6 0.4 1.3 1.3 1.1 0.5 0.0 0.1 -0.2 -0.3 -0.1 -0.3 -0.8 -1.0 -0.5 -0.4 -0.3 -0.2 -0.4 -0.7 -0.8 -0.9 -1.7 -1.8 -1.5 -0.7 -0.9 -0.9 0.7 1.7 3.4 5.1 2.3 4.7 4.9 5.0 5.1 4.4
2.7 2.0 0.6 -1.1 -1.0 -1.2 0.2 0.7 0.9 1.3 0.9 0.4 0.0 -0.4 -0.2 -0.4 -0.4 -1.3 -1.2 -1.0 -0.6 -0.6 -0.5 -0.4 -0.4 -0.4 -0.2 -0.6 -0.9 0.4 -0.2 0.2 -0.3 0.3 2.2 2.7 4.0 4.3 2.3 4.8 5.4 5.2 4.9
1.6 1.5 0.8 -0.8 -1.5 -2.3 -1.7 -1.5 -0.4 0.0 0.5 0.3 0.2 -0.4 -0.6 -0.6 -0.5 -0.8 -1.1 -1.1 -0.8 -0.5 -0.2 -0.0 -0.0 -0.3 -0.1 -0.2 -0.3 -0.2 0.2 0.5 0.4 0.5 0.8 2.4 3.4 4.1 5.6 4.9 5.3 5.4 5.4
0.9 0.8 1.1 -0.0 -2.3 -4.9 -4.8 -2.2 -2.9 -0.7 -2.5 -1.9 -1.1 -0.4 -0.7 -0.8 -0.3 0.2 -0.6 -0.5 -0.5 -0.5 -0.0 0.3 0.3 0.1 -0.0 -0.2 -0.0 0.1 0.3 0.5 0.7 0.3 0.8 1.8 3.0 5.3 5.3 5.6 5.1 5.1 6.6
0.6 1.1 1.9 1.5 -0.7 -1.7 -3.2 -4.3 -2.7 -2.9 -4.2 -4.3 -1.7 -1.8 -0.3 -0.3 -0.3 0.3 0.1 -0.0 0.1 0.1 0.1 0.2 0.4 0.3 0.6 0.6 0.6 0.3 0.2 0.3 0.2 0.4 0.5 1.2 2.2 4.7 4.9 5.6 4.7 5.0 4.9
2.4 2.0 2.3 1.7 0.7 -0.7 -2.1 -3.0 -3.9 -4.6 -4.7 -5.3 -4.1 -1.8 -0.6 0.3 0.7 0.9 1.0 0.8 0.6 0.3 0.6 0.7 1.0 0.9 1.0 0.9 0.7 0.3 0.2 0.3 0.2 0.2 0.1 0.7 1.7 4.3 6.9 6.7 6.1 5.7 6.8
2.3 2.3 2.0 1.3 0.9 0.3 -0.2 -0.5 -1.5 -3.6 -5.0 -4.5 -5.3 -3.6 -1.2 -0.2 0.5 0.9 1.1 1.0 1.1 1.6 1.7 2.2 2.4 2.4 1.9 1.3 0.9 0.9 0.9 1.2 1.0 0.8 0.5 0.1 1.9 2.5 4.6 7.6 8.4 6.6 7.2
1.0 0.6 0.6 0.5 -0.1 -0.5 -1.1 -2.8 -3.7 -2.8 -4.0 -4.6 -4.5 -2.9 -2.5 -0.3 0.5 0.7 0.9 1.3 1.4 1.6 2.0 2.6 2.7 2.2 2.4 2.8 3.2 2.7 2.6 2.5 1.9 1.7 1.3 0.6 0.9 3.1 6.3 6.7 8.2 8.4 6.9
1.3 1.0 0.2 -0.7 -1.0 -2.3 -3.3 -2.7 -2.9 -3.6 -4.1 -4.1 -4.7 -4.3 -3.0 -2.1 -0.4 0.5 0.9 1.2 1.3 2.0 2.0 2.0 2.2 2.8 3.1 3.1 3.5 4.0 4.9 5.5 4.7 3.7 3.8 2.3 1.5 2.2 5.5 7.6 8.5 8.3 8.0
0.7 -0.1 -0.1 -0.6 -1.8 -1.9 -1.9 -2.2 -1.9 -2.0 -2.3 -3.7 -5.0 -4.8 -6.7 -4.7 -2.1 -0.4 0.2 1.0 1.0 1.7 2.2 2.7 2.9 3.3 3.7 4.3 4.4 4.6 5.3 5.7 5.8 5.9 6.2 5.2 5.2 3.1 3.9 8.4 7.5 8.0 8.3
1.5 0.9 0.1 0.6 0.2 -1.0 -1.9 -2.8 -3.0 -2.3 -3.1 -6.6 -7.1 -7.2 -7.0 -7.7 -4.5 -2.6 -0.7 0.2 0.8 1.1 1.9 3.3 3.5 4.3 4.9 5.2 5.3 5.8 6.1 5.8 6.3 6.8 6.6 6.4 7.8 5.7 5.3 8.4 8.9 8.7 9.4
2.8 2.2 0.3 -0.9 -1.4 -1.6 -2.2 -2.8 -2.7 -3.1 -3.4 -5.4 -7.8 -7.7 -6.3 -6.5 -5.5 -4.0 -1.9 -0.3 0.6 0.8 1.9 2.9 3.8 4.6 4.7 5.8 6.8 7.6 7.6 7.3 6.7 6.9 7.1 6.2 8.2 8.3 7.4 8.0 8.7 8.5 8.1
4.8 3.7 2.4 0.6 -1.1 -2.4 -2.9 -2.9 -3.3 -3.2 -4.8 -3.8 -6.0 -4.2 -5.4 -7.5 -6.3 -4.1 -2.3 -0.8 0.5 1.2 1.8 2.6 3.7 4.5 5.3 6.0 6.5 8.2 7.7 7.6 7.4 7.8 7.7 7.6 8.5 8.4 8.6 9.5 8.9 8.9 8.7
5.3 5.2 4.4 4.1 2.3 -0.0 -0.9 -1.4 -2.0 -2.3 -3.4 -3.5 -2.5 -3.8 -4.9 -6.3 -4.8 -3.4 -2.3 -1.3 0.5 0.7 1.2 2.2 3.7 4.7 5.1 6.2 8.9 8.8 8.0 7.8 7.7 7.6 7.5 7.2 8.7 8.6 9.0 9.5 9.5 9.1 7.9
5.2 5.3 4.9 4.5 3.8 1.4 1.0 -0.7 -1.1 -2.6 -2.8 -2.5 -1.6 -1.1 -3.1 -3.1 -3.3 -3.2 -2.5 -0.9 -0.0 0.3 0.8 2.0 3.5 3.8 4.0 6.3 9.0 9.0 8.6 7.8 7.9 8.1 8.2 8.5 8.4 8.1 7.8 8.8 9.2 8.9 9.0
4.9 5.0 4.9 4.5 4.3 3.1 1.0 -1.6 -1.1 -1.2 -2.1 -2.0 -0.7 -1.4 -2.7 -2.6 -2.1 -2.8 -1.4 -1.3 -1.5 0.7 1.7 2.8 2.8 3.4 3.8 6.1 7.7 8.7 8.1 7.7 7.9 8.4 8.4 8.0 8.4 8.0 8.3 8.3 8.5 8.3 8.9
3.4 2.7 3.0 3.8 4.4 3.6 2.1 1.0 -0.1 -0.1 -0.3 -0.5 0.0 -0.0 -2.0 -3.6 -2.5 -0.5 -0.4 0.4 -1.2 1.6 2.6 2.7 2.3 3.1 3.1 5.6 7.0 8.1 7.6 7.9 7.4 6.7 5.9 5.7 7.7 8.6 8.6 8.3 8.3 8.0 8.2
5.2 4.8 4.1 3.9 3.9 4.1 2.6 1.9 1.7 1.7 1.4 1.5 1.9 1.5 1.1 -1.1 -2.6 -1.6 -0.0 -0.7 -1.0 1.3 3.0 2.3 2.8 3.7 4.3 4.6 6.8 7.9 7.3 7.2 6.6 5.0 6.0 6.5 7.4 8.5 8.3 8.3 8.1 8.0 8.1
5.2 5.1 4.2 3.9 3.6 4.6 3.5 3.2 3.0 2.9 3.1 3.6 3.6 3.8 3.0 1.3 -0.6 -2.0 -2.3 -1.5 0.9 2.4 2.5 3.2 3.5 3.3 5.5 4.8 7.6 8.0 7.3 7.3 6.5 5.4 6.1 5.1 7.8 8.1 8.4 8.4 8.2 8.1 8.8
5.4 4.7 4.1 3.7 3.5 4.0 4.5 4.1 3.9 4.3 4.2 4.0 4.1 4.3 4.0 3.9 4.4 -0.4 -0.1 0.4 1.2 2.5 3.3 5.3 5.1 4.5 5.9 7.1 7.3 7.7 6.3 7.8 6.7 5.4 6.1 4.9 5.4 7.1 7.0 7.5 7.5 8.4 8.4
5.6 4.9 4.1 3.6 3.1 3.6 4.5 4.7 4.6 4.2 4.1 4.2 4.1 4.2 4.3 5.1 5.1 1.9 1.3 1.4 2.5 2.8 4.1 6.9 6.5 6.2 7.3 7.7 8.6 7.1 5.8 5.9 6.5 6.5 7.4 6.3 4.3 6.3 6.3 7.0 6.9 7.4 7.9
4.9 4.5 4.3 3.4 3.0 4.1 5.5 5.1 4.5 4.1 4.1 4.2 4.3 4.1 4.3 4.6 4.5 6.2 4.8 2.2 3.6 4.4 6.2 7.3 7.1 7.2 7.6 8.1 8.1 7.4 5.9 4.1 4.0 5.0 6.0 5.7 2.8 2.2 1.7 -0.1 -0.4 -0.5 1.5
4.3 4.1 4.0 3.0 3.0 3.6 4.5 4.9 4.9 4.1 4.8 4.7 5.2 4.6 5.2 4.1 4.6 5.8 3.5 2.8 3.5 7.4 7.5 7.5 7.5 7.7 7.6 8.3 9.0 8.5 8.0 6.4 5.8 5.5 3.0 -0.8 1.0 0.7 0.9 0.1 -1.4 -1.8 -1.7
3.4 3.6 3.4 1.1 1.5 1.7 4.1 5.1 5.2 5.3 5.1 5.7 6.1 5.0 4.7 3.9 5.1 5.2 5.2 7.1 7.6 9.0 9.5 9.5 9.1 8.9 9.3 9.5 9.2 7.3 8.6 4.8 3.5 1.6 2.8 4.1 3.4 3.4 2.7 2.7 2.0 0.5 -0.2
Wind_Speed
8 10 10 8 8 7 7 6 6 3 3 3 2 2 2 2 3 9 11 11 12 11 11 6 7 8 4 4 5 3 4 3 4 5 3 4 7 8 7 6 8 9 13
9 9 8 7 7 7 6 6 5 3 3 2 1 0 1 2 2 5 9 9 10 10 11 8 5 6 3 4 4 4 3 2 4 3 2 3 1 7 9 7 8 10 13
15 12 9 8 8 7 7 6 5 4 3 2 1 2 1 2 2 3 4 9 12 11 10 9 6 5 4 3 3 3 4 2 3 3 2 2 3 4 5 11 9 10 8
12 12 10 6 8 6 6 6 5 4 3 2 2 2 1 2 1 3 4 9 12 12 12 11 9 6 4 3 3 3 2 3 4 3 6 7 3 3 5 3 9 10 12
13 13 13 9 5 7 6 5 5 3 3 2 2 1 1 2 2 3 6 6 10 11 12 12 11 8 6 4 4 4 4 4 5 4 2 4 5 6 5 5 6 6 9
9 9 8 8 5 3 3 5 4 3 2 1 1 0 2 4 3 4 4 5 5 6 10 12 11 11 9 6 6 5 5 5 6 6 6 7 5 2 5 8 10 9 10
9 9 11 9 7 7 6 4 5 4 3 2 2 2 3 4 4 5 4 6 5 5 6 10 8 7 11 11 11 8 8 7 7 8 8 8 9 8 8 8 9 5 6
8 8 8 8 8 8 7 7 6 4 3 3 4 2 4 3 3 4 4 5 6 6 11 11 12 14 14 13 13 7 8 10 9 11 11 10 9 9 9 10 8 9 10
5 7 6 6 7 7 8 8 7 4 4 4 3 3 4 4 4 6 6 5 7 7 10 11 11 14 14 14 12 9 11 11 11 11 12 11 10 10 11 10 10 10 10
4 4 5 5 5 5 5 5 4 5 4 3 3 3 4 5 5 5 7 8 8 9 10 11 10 11 12 13 12 11 13 14 11 11 14 14 10 12 11 12 11 11 13
4 4 5 4 5 4 5 6 5 5 4 4 3 4 4 4 5 5 6 7 9 8 10 11 11 12 13 13 12 14 15 17 17 16 16 18 16 12 12 12 12 12 12
5 4 5 4 5 6 6 6 5 5 5 3 4 5 4 3 4 5 7 7 9 9 11 12 13 13 14 14 15 16 15 17 18 19 19 21 14 18 16 13 18 14 13
7 7 4 6 6 6 6 6 5 6 5 4 4 4 4 4 5 6 7 7 9 9 10 12 12 14 14 14 15 16 18 18 19 20 20 22 20 21 16 17 18 16 15
6 6 5 7 6 6 7 6 6 6 4 4 4 4 5 5 5 6 6 7 8 9 10 11 13 14 13 14 15 17 18 19 20 22 22 24 23 25 21 19 21 18 16
4 4 4 5 5 6 6 5 5 5 4 5 4 6 6 4 5 6 6 7 8 8 10 12 13 14 13 11 14 16 18 20 21 23 24 26 29 37 32 16 20 20 18
4 4 4 5 6 7 7 7 6 6 5 5 6 5 4 4 5 6 6 7 8 9 9 11 12 14 12 23 28 25 18 20 22 22 22 24 33 36 42 41 38 30 18
5 5 6 6 6 7 8 9 8 5 5 5 5 5 4 4 5 5 6 7 8 7 10 11 12 13 14 25 28 30 20 21 23 26 26 23 20 32 27 39 43 39 40
6 6 6 6 6 4 6 4 6 6 5 5 5 4 3 5 5 4 6 6 5 8 9 11 12 13 13 27 30 33 24 24 26 27 29 31 29 28 28 27 27 31 28
6 5 6 6 5 6 6 6 6 5 5 6 5 4 4 4 4 5 6 6 5 7 7 10 12 13 15 29 32 30 21 22 24 22 29 30 32 40 41 28 27 28 26
6 6 6 5 6 6 6 7 7 7 7 6 6 4 4 4 4 4 6 4 4 6 7 11 11 17 15 27 32 30 16 19 16 23 20 29 31 42 43 29 25 25 24
8 6 6 6 7 5 6 7 7 8 7 6 5 4 3 3 4 4 3 4 5 7 8 9 11 12 14 19 31 35 17 14 13 15 14 10 33 37 39 38 25 27 21
9 8 6 6 6 6 7 7 9 8 6 6 4 4 3 2 1 2 4 4 5 7 7 7 10 9 12 22 26 34 33 29 13 15 14 14 25 39 37 31 37 34 28
11 7 7 6 6 6 7 8 9 6 6 6 5 4 3 2 2 3 5 4 5 5 6 6 8 10 10 11 27 30 32 30 17 12 20 27 22 24 20 29 37 36 18
10 7 6 6 7 6 5 8 6 6 7 6 5 3 3 2 1 3 3 3 4 4 5 7 8 9 10 11 12 13 13 22 19 21 12 24 29 31 23 19 17 10 5
7 4 5 6 7 6 5 6 6 7 7 5 4 3 2 1 1 2 3 3 4 5 6 6 7 9 11 14 22 20 15 13 16 14 12 18 16 16 16 15 15 13 11
3 4 4 3 5 4 5 5 7 8 6 5 4 3 2 1 1 1 3 8 10 12 16 19 15 9 20 26 27 26 31 32 28 16 17 16 16 16 15 13 11 12 15
Wind_Direction
169 159 157 148 140 137 134 130 115 82 66 36 15 8 358 344 351 357 7 11 359 351 346 2 351 359 6 356 349 332 340 326 315 307 281 281 232 218 216 202 198 198 204
157 158 153 151 156 148 137 126 116 95 75 68 72 53 327 293 289 351 353 356 351 347 339 340 337 346 342 347 347 357 339 310 3 340 300 302 275 225 216 200 203 203 198
168 166 162 169 154 153 156 147 143 135 109 75 25 357 342 307 340 354 340 340 334 331 326 324 320 321 323 321 331 327 320 321 325 283 291 287 288 335 191 214 203 203 200
164 165 165 169 170 170 153 146 152 151 140 102 84 67 25 321 335 314 313 321 324 323 321 318 315 312 296 288 284 295 278 280 277 303 245 252 295 326 324 274 213 214 206
157 165 175 173 167 153 159 155 155 154 141 131 123 103 324 290 297 306 313 314 313 313 313 312 312 309 307 294 282 276 259 248 259 250 297 276 263 249 243 297 304 220 220
156 157 152 140 139 133 148 157 156 174 141 136 159 257 279 294 315 312 313 309 307 308 306 302 299 297 295 292 290 282 262 254 250 256 250 249 246 222 216 236 274 265 235
139 143 153 162 161 175 180 176 175 204 193 184 249 243 275 278 279 287 295 303 302 300 296 294 288 286 282 281 281 278 274 266 254 250 251 245 246 250 255 265 263 283 317
130 142 159 169 176 184 185 186 192 213 202 194 238 264 267 263 266 269 277 281 284 290 291 284 279 277 276 275 275 274 274 269 263 259 251 251 250 247 242 241 246 269 269
141 158 170 179 181 181 190 189 191 211 211 221 225 243 262 271 273 275 275 276 276 279 278 278 278 278 274 270 272 266 262 260 260 256 257 255 250 242 245 244 236 236 249
182 182 187 190 193 192 187 177 179 205 213 216 223 245 261 274 280 280 274 274 272 273 276 280 278 276 270 264 261 259 260 260 257 252 254 258 252 249 243 236 234 228 233
225 215 213 216 208 189 187 193 194 204 224 220 230 242 258 272 286 273 273 271 276 274 275 278 278 274 276 268 258 254 254 257 259 255 253 253 252 250 242 245 236 230 220
240 244 244 222 207 205 196 201 197 207 218 220 228 247 271 280 281 275 275 274 274 278 278 284 282 280 273 268 264 262 257 252 250 252 250 250 249 247 242 236 237 241 232
235 240 242 228 217 214 211 211 204 218 215 199 218 261 269 272 273 274 280 283 282 280 282 285 277 276 273 274 270 263 258 252 251 248 247 248 241 246 242 235 238 230 232
261 253 241 239 226 216 212 213 217 213 206 204 213 254 270 261 268 277 282 279 283 283 283 278 274 277 277 275 271 269 263 255 250 248 243 245 241 241 237 236 234 234 237
303 281 261 253 239 227 222 213 214 209 197 212 219 251 264 257 270 285 288 288 289 285 278 278 282 289 286 278 278 273 267 263 260 252 244 242 238 241 237 231 232 231 225
311 308 294 273 232 215 211 209 213 214 186 214 237 251 265 290 290 293 299 296 295 287 282 283 285 298 292 290 290 292 282 274 269 263 254 242 237 238 238 235 234 231 228
300 302 301 288 264 208 198 203 203 176 194 216 241 257 264 284 286 295 306 300 289 290 296 296 293 294 295 298 300 297 289 284 276 269 262 250 236 230 229 233 232 231 234
285 289 295 299 290 222 195 167 165 183 193 220 237 249 262 272 292 305 299 293 273 299 302 297 299 299 299 308 308 307 295 285 279 272 255 245 234 223 219 223 225 227 228
260 245 266 279 279 243 200 181 178 181 190 228 234 238 234 272 292 307 299 289 285 313 306 299 304 304 301 311 316 313 307 302 295 285 267 235 225 220 215 216 219 224 223
266 269 267 275 279 255 183 177 199 192 211 222 224 219 235 240 278 278 295 273 281 295 300 300 302 304 306 314 320 322 318 312 311 307 308 228 216 217 211 210 212 219 221
275 273 257 255 259 250 187 199 202 212 209 204 194 213 234 248 252 284 268 289 311 308 303 300 306 304 314 323 323 331 329 322 319 309 310 292 218 212 211 208 209 216 215
272 268 259 249 255 241 193 210 213 214 185 183 191 209 237 260 264 271 299 316 319 309 304 308 318 325 323 331 331 339 340 338 330 316 315 291 231 206 206 208 214 215 216
271 256 241 249 255 249 200 206 227 180 176 175 198 202 232 259 291 281 303 323 318 303 310 329 332 328 335 337 341 342 345 344 346 330 344 21 80 183 195 214 219 221 213
267 262 240 244 255 249 220 212 196 171 167 177 197 194 215 217 300 304 287 300 305 301 324 340 340 333 342 348 349 344 349 346 349 348 357 38 55 62 58 53 48 40 37
266 241 232 240 249 244 261 202 169 161 174 173 186 198 177 138 345 321 270 274 277 346 352 343 347 349 354 360 3 2 1 1 12 1 19 38 36 40 40 40 39 39 43
256 258 256 242 252 229 245 194 160 168 167 171 183 201 173 114 90 22 336 333 342 3 4 6 6 6 5 10 14 14 11 17 19 29 31 32 39 39 34 41 44 43 46